This is the latest recevied weather packets stored in our database for station/object OE2SWM. If no packets are shown the sender has not sent any weather packets the latest 10 day(s).
| Time | Temp. | Humidity | Pressure | Rain* | Wind** | Luminosity | Snow |
|---|---|---|---|---|---|---|---|
| 1777534200 | 3.89° C | 60% | 977 hPa | 0 mm | - | - | - |
| 1777533600 | 3.89° C | 59% | 978 hPa | 0 mm | - | - | - |
| 1777533000 | 3.89° C | 60% | 978 hPa | 0 mm | - | - | - |
| 1777532400 | 2.78° C | 63% | 978 hPa | 0 mm | - | - | - |
| 1777531800 | 2.78° C | 62% | 978 hPa | 0 mm | - | - | - |
| 1777531200 | 2.78° C | 59% | 978 hPa | 0 mm | - | - | - |
| 1777530600 | 2.78° C | 60% | 978 hPa | 0 mm | - | - | - |
| 1777530000 | 1.67° C | 61% | 978 hPa | 0 mm | - | - | - |
| 1777529400 | 2.78° C | 63% | 978 hPa | 0 mm | - | - | - |
| 1777528800 | 2.78° C | 61% | 978 hPa | 0 mm | - | - | - |
| 1777528200 | 3.89° C | 63% | 978 hPa | 0 mm | - | - | - |
| 1777527600 | 5° C | 63% | 978 hPa | 0 mm | - | - | - |
| 1777527000 | 7.78° C | 57% | 978 hPa | 0 mm | - | - | - |
| 1777526400 | 10.56° C | 49% | 978 hPa | 0 mm | - | - | - |
| 1777525800 | 15.56° C | 42% | 978 hPa | 0 mm | - | - | - |
| 1777525200 | 13.89° C | 47% | 978 hPa | 0 mm | - | - | - |
| 1777524600 | 11.67° C | 50% | 978 hPa | 0 mm | - | - | - |
| 1777524000 | 10° C | 56% | 978 hPa | 0 mm | - | - | - |
| 1777523400 | 5° C | 68% | 978 hPa | 0 mm | - | - | - |
| 1777522800 | 0° C | 84% | 977 hPa | 0 mm | - | - | - |
| 1777522200 | -3.33° C | 86% | 977 hPa | 0 mm | - | - | - |
| 1777521600 | -3.33° C | 89% | 977 hPa | 0 mm | - | - | - |
| 1777521000 | -3.33° C | 86% | 977 hPa | 0 mm | - | - | - |
| 1777520400 | -3.33° C | 87% | 977 hPa | 0 mm | - | - | - |
| 1777519800 | -2.22° C | 89% | 977 hPa | 0 mm | - | - | - |
* Rain latest hour (hover to see other rain measurements)
** Current wind speed in m/s (hover to see current wind gust speed)